Weather History for 62318 - May, 2012

Change the Weather History Date:

Sunday, May 6, 2012

  Actual Average Record
Temperature  
Mean Temperature 71 °F -  
Max Temperature 77 °F 78 °F - ()
Min Temperature 65 °F 63 °F - ()
Cooling Degree Days 6    
Growing Degree Days 21 (Base 50)    
Moisture  
Dew Point 61 °F    
Average Humidity 70    
Maximum Humidity 83    
Minimum Humidity 53    
Precipitation  
Precipitation 0.00 in 0.00 in - ()
Sea Level Pressure  
Sea Level Pressure 29.93 in    
Wind  
Wind Speed 8 mph ()    
Max Wind Speed 14 mph    
Max Gust Speed -    
Visibility 6.1 miles    
Events      
T = Trace of Precipitation, MM = Missing Value Source: Averaged Metar Reports

Daily Weather History Graph

Daily Weather History Graph

Search for Another Location

Airport or City:

Trip Planner

Search our weather history database for the weather conditions in past years. The results will help you decide how hot, cold, wet, or windy it might be!

Date:

Astronomy

May. 06, 2012 Rise Set
Actual Time 5:11 AM EET 6:43 PM EET
Civil Twilight 4:45 AM EET 7:09 PM EET
Nautical Twilight 4:13 AM EET 7:40 PM EET
Astronomical Twilight 3:41 AM EET 8:13 PM EET
Moon 7:20 PM EET (5/6) 5:06 AM EET (5/6)
Length of Visible Light 14h 24m
Length of Day
13h 31m
Full, 100% of the Moon is Illuminated
May 6
Full
May 12
Last Quarter
May 21
New
May 28
First Quarter
Jun 4
Full

Hourly Weather History & Observations

Time (EET) Temp. Dew Point Humidity Pressure Visibility Wind Dir Wind Speed Gust Speed Precip Events Conditions
12:00 AM 69.8 °F 57.2 °F 64% 29.92 in - North 6.9 mph - N/A   Clear
1:00 AM 69.8 °F 60.8 °F 73% 29.89 in - North 6.9 mph - N/A   Clear
2:00 AM 68 °F 60 °F 70% 29.90 in 6 mi North 6.9 mph - -  
2:00 AM 68.0 °F 60.8 °F 78% 29.89 in - North 6.9 mph - N/A   Clear
3:00 AM 66.2 °F 60.8 °F 83% 29.89 in - North 5.8 mph - N/A   Clear
4:00 AM 66.2 °F 59.0 °F 78% 29.92 in - NE 4.6 mph - N/A   Clear
5:00 AM 66.2 °F 60.8 °F 83% 29.89 in - North 5.8 mph - N/A   Clear
6:00 AM 66.2 °F 60.8 °F 83% 29.89 in - North 6.9 mph - N/A   Clear
7:00 AM 71.6 °F 62.6 °F 73% 29.95 in - North 10.4 mph - N/A   Clear
8:00 AM 72 °F 62 °F 63% 29.94 in 6 mi North 10.4 mph - -  
8:00 AM 71.6 °F 62.6 °F 73% 29.95 in - North 10.4 mph - N/A   Clear
9:00 AM 73.4 °F 64.4 °F 73% 29.95 in 6.2 mi NNW 9.2 mph - N/A   Partly Cloudy
10:00 AM 75.2 °F 64.4 °F 69% 29.95 in - NNW 10.4 mph - N/A   Clear
11:00 AM 75.2 °F 64.4 °F 69% 29.95 in - NNW 9.2 mph - N/A   Clear
12:00 PM 77.0 °F 62.6 °F 61% 29.95 in - NNW 10.4 mph - N/A   Clear
1:00 PM 77.0 °F 60.8 °F 57% 29.95 in - North 11.5 mph - N/A   Clear
2:00 PM 76 °F 62 °F 53% 29.94 in 6 mi NW 13.8 mph - -  
2:00 PM 77.0 °F 62.6 °F 61% 29.95 in - NW 13.8 mph - N/A   Clear
3:00 PM 75.2 °F 62.6 °F 65% 29.92 in - NNW 11.5 mph - N/A   Clear
4:00 PM 75.2 °F 62.6 °F 65% 29.92 in - North 11.5 mph - N/A   Clear
5:00 PM 73.4 °F 60.8 °F 65% 29.92 in - North 11.5 mph - N/A   Clear
6:00 PM 69.8 °F 59.0 °F 68% 29.92 in - North 9.2 mph - N/A   Clear
7:00 PM 68.0 °F 59.0 °F 73% 29.92 in - NNW 10.4 mph - N/A   Clear
8:00 PM 67 °F 59 °F 68% 29.95 in 6 mi NW 8.1 mph - -  
8:00 PM 68.0 °F 59.0 °F 73% 29.95 in - NW 8.1 mph - N/A   Clear
9:00 PM 68.0 °F 59.0 °F 73% 29.95 in - North 6.9 mph - N/A   Clear
10:00 PM 66.2 °F 59.0 °F 78% 29.98 in - NNW 9.2 mph - N/A   Clear
11:00 PM 66.2 °F 59.0 °F 78% 29.98 in 6.2 mi NNW 11.5 mph - N/A   Scattered Clouds